Location: Cave
(41.8160°N, 12.9350°E)
Time: 23:29:55
(UTC+02:00)

ISS - Pass Details

Date: 12 July 2019
Orbit: 409 x 418 km, 51.6° (Epoch: 20 July)

Event Time Altitude Azimuth Distance (km) Brightness Sun altitude
Exits shadow 01:39:22 27° 9° (N) 820 -1.7 -25.9°
Drops below altitude 10° 01:41:29 10° 41° (NE) 1,481 -0.3 -25.8°
Sets 01:43:43 0° 52° (NE) 2,344 0.7 -25.8°
